Theta_e
297 300 299 298 297 298 296 295 289 294 294 295 296 294 294 295 297 297 297 298 296 295 295 296 297 299 301 301 301 302 305 303 301 303 302 305 305 303 305 304 303 303 301 299
297 300 300 297 299 298 297 295 295 294 292 296 296 296 296 296 297 295 297 298 296 297 296 297 299 300 301 302 302 302 302 303 304 305 306 303 306 307 306 304 305 306 304 299
292 300 298 293 298 297 296 297 294 289 293 296 296 295 294 295 296 298 298 297 297 298 297 298 298 300 300 302 302 302 302 304 304 303 305 304 303 303 302 303 304 304 300 299
293 296 286 300 304 302 299 299 299 299 297 297 295 295 296 296 299 297 297 298 298 298 297 298 299 300 301 303 302 302 302 303 304 307 306 305 304 302 301 300 299 298 298 297
293 292 295 300 305 302 297 295 300 297 296 297 297 296 294 298 297 297 297 298 298 298 298 299 300 301 302 301 301 302 303 304 305 307 306 306 305 303 301 300 300 299 298 299
296 289 286 298 304 307 302 290 300 299 296 296 296 288 291 298 300 299 299 299 299 299 299 299 300 301 300 300 301 304 305 305 305 305 303 302 303 303 307 305 301 302 302 299
294 292 297 303 305 305 289 289 299 299 298 296 293 295 296 299 300 300 299 299 300 299 298 299 301 303 300 300 301 305 306 306 306 304 303 301 298 299 300 306 302 300 300 299
294 291 288 305 302 294 298 299 299 298 297 297 297 297 297 299 299 300 300 300 300 299 299 300 302 302 300 301 304 306 306 305 304 304 303 299 292 294 295 297 298 298 298 296
295 295 302 302 301 303 301 299 298 298 299 299 298 298 298 297 299 300 300 300 301 299 300 301 302 302 301 303 304 305 303 303 303 306 306 302 292 290 291 291 293 293 291 290
298 304 302 302 303 302 301 299 301 301 301 300 298 299 298 299 299 299 300 300 301 301 301 301 303 304 303 304 306 304 303 303 306 306 306 304 299 290 288 287 286 287 290 288
297 301 303 304 304 303 301 302 302 302 302 301 299 298 300 300 300 300 300 301 301 301 301 301 303 304 305 306 306 304 303 303 304 305 306 304 300 295 290 288 287 285 284 286
295 301 299 302 304 306 302 301 303 302 302 302 301 300 301 301 301 300 300 301 301 301 301 302 303 304 305 306 306 305 302 302 301 305 306 305 300 296 293 292 292 291 290 288
302 307 310 308 308 309 304 303 304 303 305 303 302 300 302 300 300 302 301 302 301 302 303 303 303 304 305 306 305 303 301 302 302 304 302 301 300 296 294 294 293 292 291 291
307 309 304 306 304 308 306 304 305 305 306 304 304 303 302 301 301 301 301 303 303 303 304 304 304 304 306 305 305 303 303 301 302 303 303 301 300 300 296 293 294 294 292 292
306 306 304 308 309 307 308 308 306 303 304 303 305 304 303 303 301 301 301 303 303 303 304 304 304 304 306 306 304 304 303 304 307 305 302 301 299 298 298 296 294 294 292 292
305 306 306 305 305 306 306 307 308 309 310 305 303 304 306 305 304 303 303 303 301 301 303 304 303 304 305 305 305 304 303 302 300 302 301 300 298 296 296 298 297 296 294 291
301 300 302 303 304 305 305 306 308 308 308 309 309 307 305 306 304 303 303 304 304 303 304 303 304 306 306 305 304 305 304 307 300 301 300 300 298 295 295 295 295 295 293 291
303 302 303 303 304 305 306 307 307 308 308 309 309 306 304 305 303 304 303 304 303 303 304 305 306 306 306 307 305 304 304 305 306 303 302 301 298 296 295 293 295 293 292 292
304 303 305 306 305 305 306 306 306 308 308 309 306 304 305 307 305 306 305 304 302 302 305 306 304 303 305 305 304 304 304 307 307 305 303 300 301 297 295 294 292 294 294 294
304 304 305 306 306 305 305 305 305 306 307 308 309 309 306 306 307 307 307 305 304 307 307 306 305 306 306 305 299 305 304 304 306 304 305 305 304 305 297 293 293 293 293 294
304 304 304 305 305 304 304 304 303 303 305 306 306 306 308 309 309 308 306 304 309 309 307 304 307 306 306 303 303 307 304 303 304 304 305 305 305 305 305 301 295 293 292 293
301 302 303 305 304 301 302 302 302 303 303 303 304 305 305 305 306 306 308 307 311 299 306 308 308 302 306 296 307 308 306 304 303 302 303 304 305 304 303 302 300 296 293 292
299 301 302 303 303 301 301 301 301 301 301 301 301 302 302 304 307 306 305 309 310 306 308 308 300 291 291 300 308 308 307 305 304 303 303 303 304 304 303 305 305 300 297 294
300 301 302 304 302 300 299 300 300 301 300 301 302 302 303 305 306 309 310 304 296 299 309 308 300 291 290 302 307 308 309 308 306 305 303 296 303 302 302 303 303 306 301 293
300 299 299 299 299 299 299 300 300 300 300 300 300 301 301 305 305 306 307 308 299 302 309 299 293 292 298 303 305 307 307 306 308 307 305 304 304 303 303 303 304 305 305 299
298 297 297 297 298 299 300 300 299 299 299 299 300 302 302 303 304 305 308 302 308 303 309 309 308 307 303 305 304 306 306 306 305 306 305 307 307 305 304 304 304 305 306 302
300 296 298 298 301 300 300 300 298 298 300 300 300 302 302 302 302 300 299 305 306 307 308 309 309 305 305 305 305 306 307 307 302 308 308 308 307 307 308 309 309 308 308 307
Wind_Speed
6 13 16 12 10 10 7 4 3 4 4 3 3 5 5 6 5 5 4 2 3 2 3 4 5 6 6 6 6 6 6 6 6 5 5 4 4 4 4 4 3 2 4 5
9 14 14 13 8 9 8 6 5 5 3 3 5 8 6 6 5 4 5 4 5 4 2 3 4 5 5 6 6 5 6 6 5 5 5 5 4 4 3 4 4 4 4 5
6 2 2 8 7 6 4 5 1 1 2 3 4 6 6 5 5 6 4 5 4 3 2 3 4 5 5 6 5 5 5 6 6 6 5 6 5 5 5 5 4 5 5 4
2 4 4 3 5 8 8 5 4 5 4 2 4 3 4 4 5 5 4 4 4 3 3 4 4 4 5 4 4 5 5 6 6 6 5 6 6 6 4 3 4 3 3 3
5 3 2 2 0 3 1 2 5 4 4 4 4 3 3 4 3 4 5 4 4 4 3 4 5 5 4 4 5 4 5 6 6 5 7 6 6 6 4 3 3 3 2 4
3 5 2 3 6 7 5 2 3 3 5 6 4 0 5 5 4 5 5 3 4 4 2 4 4 4 3 4 4 4 5 6 5 5 5 6 5 5 3 2 2 2 3 5
3 4 2 5 7 3 4 5 2 3 6 7 5 6 3 6 4 4 4 6 5 4 4 5 5 4 2 4 4 4 4 4 5 6 6 4 4 3 4 2 2 2 3 4
3 4 3 8 6 7 5 1 1 0 1 5 5 3 3 5 6 6 6 5 5 3 5 5 4 3 1 3 5 5 5 5 6 6 5 4 5 3 4 4 2 2 3 4
3 5 3 3 3 2 5 5 4 3 4 5 5 5 5 5 6 5 5 4 2 4 4 5 4 3 3 4 5 5 5 6 5 5 3 2 2 2 2 4 3 2 2 3
3 1 3 3 1 2 5 3 3 4 6 6 6 5 5 5 5 5 4 4 3 4 3 4 4 4 5 5 3 3 4 5 5 4 5 4 2 1 0 1 1 2 2 3
2 3 2 4 4 3 3 3 3 4 5 8 6 5 6 6 6 6 5 4 3 4 4 5 4 6 5 4 3 3 4 5 5 4 5 5 4 4 3 4 4 2 2 2
3 3 1 6 5 4 2 5 7 7 5 5 6 8 6 7 6 6 6 3 3 5 5 7 5 6 6 4 3 2 4 4 4 5 4 3 3 4 7 9 6 8 7 5
3 3 6 6 3 6 8 7 9 8 7 8 8 6 6 5 5 6 6 6 5 6 6 6 5 6 6 5 3 4 4 5 4 5 4 4 3 3 4 3 6 9 9 10
11 5 11 12 6 11 4 6 4 6 7 6 7 6 6 6 4 7 7 8 6 6 5 6 6 7 7 4 4 4 4 8 4 5 5 4 4 4 4 4 3 4 2 2
9 7 2 5 10 11 8 8 7 5 7 8 7 7 7 8 8 9 7 7 6 5 6 5 6 8 6 4 5 5 4 4 4 4 4 5 3 2 3 4 4 4 3 5
4 8 8 8 8 8 7 9 7 10 9 8 8 10 14 10 8 7 7 6 5 7 7 6 6 8 6 5 4 4 5 7 6 4 5 4 2 2 3 4 4 4 3 4
9 9 6 9 9 9 6 6 6 8 11 11 14 14 9 7 5 6 7 7 7 8 7 7 8 6 6 5 5 4 3 4 6 4 4 4 3 2 3 4 4 4 5 4
4 3 4 4 8 8 9 10 10 10 12 15 15 5 8 7 8 8 7 6 6 7 7 8 7 7 6 6 5 4 4 4 3 4 4 5 3 3 3 5 4 5 4 3
2 3 4 5 6 6 7 10 11 11 12 13 10 3 5 7 6 7 3 5 7 7 10 7 10 9 7 7 6 4 5 4 4 4 4 5 3 3 3 4 5 5 5 4
5 4 5 5 5 5 7 8 10 9 10 11 11 10 7 7 7 7 6 10 10 9 8 7 8 7 8 8 8 4 5 5 4 4 4 4 5 4 3 4 6 5 5 5
6 5 5 5 6 4 6 6 7 9 10 9 10 10 10 10 7 6 6 6 13 9 11 11 7 6 5 6 6 5 5 5 4 4 4 4 3 4 5 5 5 5 5 4
6 6 6 5 6 6 5 6 6 8 8 9 10 9 10 11 10 8 8 11 10 6 3 5 5 9 7 10 5 5 5 5 5 4 5 4 2 4 4 4 4 5 5 5
5 4 4 4 6 6 6 4 5 6 8 9 10 10 9 8 8 8 9 4 4 5 4 4 6 7 8 5 5 5 6 6 6 5 5 5 5 5 4 4 4 4 5 5
5 6 5 6 3 4 7 6 7 6 5 7 8 9 8 7 9 4 7 10 10 12 7 7 3 7 8 5 6 6 7 6 5 6 5 7 5 5 5 4 5 5 4 5
7 6 5 6 6 6 6 6 6 6 6 6 8 7 7 5 6 10 9 8 11 11 10 9 7 10 6 7 6 7 7 6 7 7 7 6 5 5 5 5 5 5 4 5
6 5 5 5 5 5 5 4 5 5 4 6 6 6 6 5 5 7 8 9 9 14 11 6 5 8 7 8 7 7 7 7 6 7 7 7 7 5 5 5 4 5 5 5
6 6 6 6 6 6 6 5 4 6 5 6 7 7 6 7 7 6 6 7 8 10 11 10 9 8 6 6 6 7 7 7 8 7 5 7 5 5 5 4 3 1 5 4
Wind_Direction
63 89 77 75 63 42 53 119 107 211 188 256 210 150 135 129 138 153 172 206 226 257 316 305 321 333 341 329 323 321 355 8 352 338 335 343 360 356 6 8 15 35 49 39
50 83 80 71 37 52 33 25 35 53 18 19 80 104 119 143 144 177 214 212 234 240 287 301 321 322 332 331 331 346 5 4 347 350 355 8 7 348 21 9 6 33 59 55
171 24 65 41 10 45 56 29 112 308 309 142 91 107 149 171 183 203 201 210 216 237 248 278 300 310 323 317 317 355 359 346 339 346 340 344 339 352 6 13 30 43 51 55
91 9 53 97 8 105 85 22 69 89 92 89 137 126 160 199 189 195 198 208 237 245 262 275 287 311 318 328 333 343 342 338 337 348 344 354 4 14 15 17 33 42 28 29
107 54 299 280 274 319 350 16 340 129 124 103 103 56 313 232 198 202 212 214 219 221 234 269 291 305 317 330 332 339 351 344 347 341 342 355 8 12 11 26 36 22 2 9
87 99 109 287 319 305 137 340 9 145 173 161 151 103 261 205 200 213 223 223 215 224 241 274 288 309 325 320 327 357 344 331 342 352 357 6 355 358 352 355 37 47 18 16
95 92 19 302 324 350 67 249 326 147 191 175 202 208 245 151 208 217 214 217 222 225 236 261 287 302 299 315 326 311 325 339 357 356 339 358 340 8 353 5 55 24 27 357
67 70 8 345 360 77 215 270 239 257 221 189 202 164 161 190 215 225 239 228 211 224 250 266 268 299 315 317 296 325 351 356 346 348 357 6 14 355 11 17 36 2 357 340
98 186 240 313 136 170 159 175 210 180 196 189 174 210 202 214 216 226 230 236 243 229 261 272 255 217 252 272 310 328 347 337 335 336 309 288 350 356 20 13 8 354 360 332
66 327 154 191 244 203 205 190 171 185 177 180 201 202 213 205 224 234 235 248 230 257 239 258 260 228 227 267 300 335 334 326 319 336 319 319 229 230 52 102 358 319 321 321
12 350 349 275 249 208 190 133 150 173 191 196 185 213 198 213 224 229 234 240 207 238 236 244 259 262 253 257 267 321 312 315 312 292 312 318 288 229 217 235 179 185 244 249
238 288 271 318 325 45 266 206 199 184 192 227 198 203 204 222 220 216 223 232 221 230 238 259 224 264 278 278 272 294 312 324 311 311 305 307 311 296 227 226 235 228 222 208
313 336 77 328 135 188 224 239 220 198 195 203 232 213 197 209 218 223 224 218 223 227 242 249 245 240 266 274 280 279 275 299 306 303 301 299 299 247 260 300 246 228 234 230
28 14 23 24 340 350 11 358 324 267 243 217 216 212 218 216 208 213 223 221 221 227 233 239 243 251 249 259 275 277 281 278 276 289 285 295 280 256 225 217 242 287 306 267
35 58 53 318 7 1 8 1 354 306 275 268 239 222 207 216 224 224 224 222 221 229 242 241 246 259 258 248 255 274 282 283 293 286 306 304 303 267 223 218 225 252 315 325
43 36 18 15 349 344 345 348 345 332 324 278 254 231 229 212 217 228 229 216 195 224 234 236 237 252 266 251 230 260 269 281 278 309 316 308 274 252 251 237 226 231 240 249
40 18 358 357 344 334 323 315 311 310 312 298 290 259 218 200 220 242 240 228 222 228 224 220 236 245 248 240 231 243 253 284 305 312 286 291 264 241 278 239 222 220 226 229
99 75 46 6 344 337 335 333 323 319 323 316 306 232 173 170 221 233 230 238 249 255 238 232 232 248 240 233 233 251 256 277 298 289 315 339 304 231 211 266 226 214 233 242
43 46 36 8 339 338 332 335 331 322 330 335 343 300 247 228 230 224 216 234 241 245 255 225 232 229 244 240 221 223 257 271 289 318 301 310 325 269 214 238 259 230 217 223
324 336 10 356 346 348 331 336 333 336 337 343 346 357 342 293 257 233 226 229 229 232 246 228 229 232 232 232 208 224 255 268 270 281 304 342 327 295 235 235 242 240 228 221
296 287 320 337 312 354 347 329 333 339 337 345 347 342 329 317 309 272 264 259 256 231 229 237 225 230 223 227 204 202 215 243 252 262 270 236 280 320 310 293 242 227 241 231
329 331 303 300 323 331 352 328 325 329 334 339 340 336 336 332 318 304 274 254 272 254 243 249 226 229 228 218 217 201 206 217 234 254 263 263 261 261 278 269 247 236 217 228
320 309 302 280 279 299 304 311 327 328 329 331 330 328 325 315 316 311 310 337 324 298 293 258 249 249 246 231 229 227 218 213 224 228 237 249 252 255 266 264 253 250 236 227
310 302 293 261 264 295 310 310 314 310 309 312 312 311 315 317 320 329 321 307 297 287 268 263 282 286 260 232 225 232 232 225 230 234 229 236 248 245 242 244 265 253 234 215
291 284 294 304 287 269 271 274 292 295 312 312 305 299 296 304 306 316 309 301 308 332 289 267 269 261 256 247 227 225 232 226 229 229 230 228 232 243 255 238 240 257 258 228
332 319 311 307 287 294 283 281 275 283 295 301 297 293 292 287 295 304 313 322 339 328 310 283 255 255 241 244 232 224 227 230 227 237 236 232 228 222 230 224 223 243 256 220
353 356 345 339 344 337 324 307 304 287 287 281 284 293 289 294 292 295 303 327 333 328 318 324 305 276 254 249 239 228 227 230 233 230 223 234 220 208 220 247 248 357 286 252